Reflectivity
12 15 12 22 20 19 -6 10 -1 13 -3 -19 -20 -8 -2 -20 -20 1 -20 -20 -20 -20 -20 -20 -20 -20 -20 -20 -17 -19 -3 -19 1 16 39 25 6 -10 9 12 38 33 40 35 15 5 -20
16 10 15 8 16 21 9 -18 20 -7 13 6 -20 -4 -13 -20 -20 -20 -20 -20 -20 -20 -20 -20 -20 -20 -20 -20 -20 -20 -18 -20 -19 -14 18 -18 -20 -7 15 25 37 37 29 28 29 -6 -20
15 15 16 7 10 5 22 -3 22 14 3 16 -9 -13 -2 -20 -20 -20 -20 -20 -20 -20 -20 -20 -20 -20 -20 -20 -12 -20 -15 -16 -20 -4 25 -20 -20 -19 15 26 27 40 42 27 5 -17 2
14 7 13 12 16 13 8 26 6 18 22 9 -1 -20 -20 -20 -7 -20 -20 -20 -20 -20 -20 -20 -20 -20 -20 -20 -20 -20 -20 -20 -20 -20 -20 -20 -14 -14 -12 20 19 18 40 29 1 11 -20
4 8 10 5 -15 -4 3 4 24 10 18 22 -10 -20 -17 -20 4 -20 -20 -20 -20 -20 -20 -20 -20 -20 -20 -20 -20 -20 -20 -20 -20 -20 -20 -17 -20 -20 -20 15 8 17 21 36 32 31 -20
-20 -20 -20 -20 -19 -19 8 4 19 23 30 31 15 -20 -20 -20 6 -20 -20 -20 -20 -20 -20 -20 -20 -20 -20 -20 -20 -20 -20 -20 -20 -20 -20 -20 -20 -20 -20 7 -13 -19 6 23 30 29 36
0 -20 -20 -20 -20 -8 11 -12 8 27 20 17 18 -5 -13 -20 10 -20 -20 -20 -20 -20 -20 -20 -20 -20 -20 -20 -20 -20 -20 -20 -20 -20 -20 -20 -20 9 -20 -20 -14 -9 4 16 16 7 9
-20 -20 -20 -20 -20 -20 17 1 -7 23 29 31 26 32 -18 -20 8 -20 -20 -20 -20 -20 -20 -20 -20 -20 -20 -20 -20 -20 -20 -20 -20 -20 -20 -20 -20 -20 -20 -20 -20 -20 -20 3 12 -5 34
-20 -20 -20 -20 -20 -20 -14 13 -4 13 23 30 31 16 -12 -20 9 -3 -20 -20 -20 -20 -20 -20 -20 -20 -20 -20 -20 -20 -20 -20 -20 -20 -20 -20 -20 -20 -20 -20 -20 -20 -20 -20 -14 3 17
-20 -20 -20 -20 -20 -20 -20 -5 -20 -13 17 34 31 30 -11 -10 3 7 -20 -20 -20 -20 -20 -20 -20 -20 -20 -20 -20 -20 -20 -20 -20 -20 -20 -20 -20 -20 -20 -20 -20 -20 -20 -20 -20 -18 -14
-20 2 -20 -20 -20 -20 -20 -7 -20 -20 -3 35 37 38 6 -6 8 9 -20 -20 -20 -20 -20 -20 -20 -20 -20 -20 -20 -20 -20 -20 -20 -20 -20 -20 -20 -20 -20 -20 -20 -20 -20 -20 -6 -20 -20
-20 -17 -9 -20 -20 -17 -20 -20 -20 -20 15 33 34 37 -8 -4 4 12 -20 -20 -20 -20 -20 -20 -20 -20 -20 -20 -20 -20 -20 -20 -20 -20 -20 -20 -20 -20 -20 -20 -20 -20 -20 -20 -20 -20 1
10 -10 -5 -1 -8 -8 -20 -20 -20 -20 -1 26 32 41 13 -4 -15 13 -11 -20 -20 -20 -20 -20 -20 -20 -20 -20 -20 -20 -20 -20 -20 -20 -20 -20 -20 -20 -20 -20 -20 -20 -20 -20 2 13 -16
14 -6 -19 5 -20 -9 -20 -20 -20 -20 18 30 35 39 5 -10 -19 10 7 -20 -20 -20 -20 -20 -20 -20 -20 -20 -20 -20 -20 -20 -20 -20 -20 -20 -20 -20 -20 -20 -20 -20 14 -18 -19 -20 -15
19 14 8 7 10 -4 -20 -20 -20 -9 29 25 37 28 -0 -20 -3 -8 10 -19 -20 -20 -20 -20 -20 -20 -20 -20 -20 -20 -20 -20 -20 -20 -20 -20 -20 -20 -20 -20 -20 -16 -20 -7 21 -16 -20
14 18 8 8 11 -10 -3 -20 -20 3 28 31 36 34 5 -20 2 -15 6 -15 -20 -20 -20 -20 -20 -20 -20 -20 -20 -20 -20 -20 -20 -20 -20 -20 -13 -20 -20 19 4 -20 -6 2 4 18 -7
20 17 -3 32 7 -6 -20 -20 -19 7 30 37 36 28 4 -19 -8 -20 19 -9 -20 -20 -20 -20 -20 -20 -20 -20 -20 -20 -20 -20 -20 -20 -20 -20 -14 -20 11 -6 -20 5 -20 -20 -2 -11 -20
20 23 37 22 19 12 -20 -20 -7 17 27 36 35 26 14 -18 -9 -8 22 -20 -20 -20 -20 -20 -20 -20 -20 -20 -20 -20 -20 -20 -20 -20 -20 -20 -6 -16 -19 24 18 19 19 16 -2 -20 -20
18 27 19 28 20 -4 -20 -20 -20 15 34 33 33 22 19 -16 -10 -1 14 -4 -20 -20 -20 -20 -20 -20 -20 -20 -20 -20 -20 -20 -20 -20 4 1 11 -14 -20 -8 -8 25 10 14 -5 -14 -20
3 -1 20 17 -20 -12 -6 5 2 23 34 27 36 18 25 -15 -3 13 13 -14 -20 -20 -20 -20 -20 -20 -20 -20 -20 -20 -20 -20 -20 -20 -20 -20 -20 -20 -20 12 18 21 24 3 10 11 -20
-20 11 11 -1 24 -16 -4 -9 -3 34 32 30 33 -13 11 6 -4 18 14 -20 -20 -20 -20 -20 -20 -20 -20 -20 -20 -20 -20 -20 -20 -20 -20 -20 -20 -1 -20 -13 8 -20 -15 13 33 0 -18
-20 13 18 37 33 30 26 18 32 35 31 31 24 8 -0 4 8 19 11 -20 -20 -20 -20 -20 -20 -20 -20 -20 -20 -20 -20 -20 -20 -20 -20 -20 -20 -20 -20 -20 -20 -20 -20 -9 18 21 16
-20 8 31 24 31 27 33 34 19 20 34 32 24 8 15 11 6 12 13 -9 -20 -20 -20 -20 -20 -20 -20 -20 -20 -20 -20 -20 -20 -20 -20 -20 -20 -20 -19 -20 -20 -20 -20 -20 -15 -13 -6
-20 -20 0 22 19 32 33 25 19 19 26 18 16 14 9 4 -0 7 2 -19 -20 -20 -20 -20 -20 -20 -20 -20 -20 -20 -20 -20 -20 -20 -20 -20 -20 -20 -20 -20 -20 -20 -20 -20 -20 -20 -12
-20 -20 -11 13 5 34 28 29 20 25 21 32 20 9 3 -2 -1 -6 4 -20 -20 -20 -20 -20 -20 -20 -20 -20 -20 -20 -20 -20 -18 -20 -20 -20 -20 -20 -20 -20 -20 -20 -20 -20 -20 -20 -20
-20 -20 18 7 -20 10 25 29 14 28 31 12 -3 -7 -19 -0 -20 -0 -15 -20 -20 -20 -20 -20 -20 -20 -20 -20 -20 -20 -20 -20 -20 -20 -20 -20 -20 -2 -20 -20 -20 -20 -20 -20 -20 -20 -20
-9 -20 -20 13 -20 -8 25 30 21 26 27 -18 -20 -10 -5 -14 -20 -15 -20 -20 -20 -20 -20 -20 -20 -20 -20 -20 -20 -20 -20 -20 -20 -20 -20 -20 -20 -20 -20 -20 -20 -20 -20 -20 -20 -20 -20
13 -20 -20 -6 -20 15 20 31 27 30 21 -19 -20 3 -3 -1 -20 -20 -20 -20 -20 -20 -20 -20 -20 -20 -20 -20 -20 -20 -20 -20 -20 -20 -20 -20 -20 -20 -20 -20 -20 -20 -20 -13 -20 -20 -20
12 -20 -20 -20 2 9 30 28 33 28 26 -13 10 2 3 -20 -20 -20 -20 -20 -20 -20 -20 -20 -20 -20 -20 -20 -20 -20 -20 -20 -20 -20 -20 -20 -20 -20 -20 -20 -20 -20 -20 -20 -20 -20 -20
Wind_Speed
20 19 19 20 19 15 15 13 12 13 14 15 15 13 10 10 10 12 12 12 12 12 12 13 14 16 5 5 4 9 17 7 4 2 7 4 8 5 5 7 3 11 15 5 5 9 17
21 22 22 21 20 18 16 16 14 12 12 15 15 15 10 9 9 10 12 13 12 12 12 12 12 12 2 6 6 8 10 7 3 3 4 1 3 3 3 8 10 7 10 13 7 11 14
25 25 25 24 24 23 18 16 14 12 13 13 14 14 11 10 10 10 12 13 13 12 12 12 11 3 2 4 6 9 9 3 1 1 4 2 4 5 2 12 10 4 5 8 17 10 8
22 23 24 24 26 25 25 15 16 13 13 13 14 13 11 10 10 9 12 14 14 13 13 11 10 1 3 5 7 7 7 6 5 1 1 5 3 2 2 7 7 4 6 4 12 11 7
23 23 23 23 24 25 25 25 18 15 14 14 13 13 11 10 10 9 11 15 15 13 13 9 2 1 5 6 4 8 3 6 7 3 4 2 2 1 1 6 4 1 4 7 8 9 7
23 23 26 25 24 26 26 27 23 16 14 14 13 11 11 8 10 8 10 14 11 8 3 2 1 3 5 4 5 6 6 4 3 6 4 4 2 3 3 3 3 4 6 5 6 3 6
23 23 23 25 25 24 25 25 25 17 16 14 12 10 11 7 8 6 5 4 4 4 4 1 1 2 2 6 3 4 4 6 4 7 4 5 7 5 3 4 2 5 6 10 8 9 3
23 24 23 22 25 25 24 24 26 26 17 13 12 10 10 7 7 2 3 1 2 1 2 4 3 2 2 1 4 5 5 3 5 2 6 7 3 2 6 3 3 5 6 3 6 14 5
23 24 24 24 24 25 26 24 25 21 17 14 13 9 9 6 4 1 3 3 2 2 1 3 3 3 2 2 1 4 4 2 3 4 4 3 4 5 5 4 3 2 2 1 5 10 2
25 25 25 24 23 24 25 24 27 26 18 15 10 9 8 6 2 3 2 6 3 2 6 4 3 3 1 1 2 2 1 1 2 2 0 0 4 2 2 2 1 1 3 5 8 7 3
27 27 26 25 23 23 24 26 26 24 23 13 12 10 9 10 1 3 4 6 4 5 3 2 3 2 1 2 0 2 1 2 2 0 4 4 1 1 2 2 1 3 4 5 6 4 5
28 28 27 25 24 23 23 25 26 23 20 15 15 12 10 4 0 1 5 6 4 8 8 2 3 3 2 2 1 0 1 1 1 1 2 3 3 3 3 2 1 1 5 7 6 3 3
28 29 27 26 24 22 22 25 26 25 23 17 14 13 10 4 3 6 4 4 5 5 3 4 5 4 3 4 2 3 2 2 4 4 3 6 3 3 3 1 3 4 5 2 1 3 4
30 29 28 27 25 22 21 23 25 26 28 18 16 13 5 3 4 6 3 5 3 3 6 3 3 4 4 5 3 1 1 2 4 3 3 3 7 6 4 6 6 4 7 5 7 4 2
31 30 28 27 26 22 19 21 23 24 15 15 10 4 3 3 5 2 4 3 7 6 6 8 3 3 2 3 3 3 4 4 6 9 7 4 5 2 2 1 4 4 4 6 4 1 3
30 30 30 28 25 23 19 19 21 21 8 16 2 3 3 6 4 2 4 5 4 3 3 3 4 4 5 3 4 4 3 4 4 9 4 4 3 2 3 2 1 4 6 4 0 4 4
30 25 17 26 25 21 17 18 19 20 9 17 3 3 3 5 2 3 3 7 4 3 3 4 6 4 4 4 6 4 4 2 3 3 5 4 2 3 0 5 7 3 3 2 4 3 4
32 25 24 25 21 17 17 20 20 19 12 17 3 3 5 3 3 3 3 6 4 4 1 2 3 2 5 4 3 3 4 1 7 1 4 3 4 4 9 3 1 2 2 4 3 5 1
31 23 14 24 16 15 20 23 20 17 12 8 4 3 1 1 5 3 4 4 4 4 3 2 3 3 3 4 2 4 4 3 8 5 2 1 1 3 8 2 1 3 4 7 3 2 6
21 16 19 16 14 19 22 22 22 20 20 8 4 4 2 2 0 2 4 4 3 1 3 4 3 3 3 1 2 1 3 4 4 5 9 3 3 5 5 1 2 6 3 10 11 3 5
14 15 15 14 18 26 25 24 25 14 32 4 4 5 6 8 9 7 5 6 5 5 1 3 2 3 5 4 1 2 2 3 4 7 5 3 6 6 9 9 8 9 8 9 12 11 9
16 16 10 21 26 29 23 19 19 27 37 3 5 5 3 3 9 13 4 6 8 4 5 4 4 4 4 5 5 6 4 3 1 5 3 3 2 3 6 7 7 13 10 10 12 6 13
18 19 16 23 16 18 17 20 24 34 32 4 3 2 5 4 6 9 6 6 9 10 4 1 7 5 2 1 4 4 3 4 5 4 1 3 3 2 5 4 2 4 9 11 9 10 8
18 20 23 20 17 20 24 18 31 39 30 3 3 4 4 4 4 6 6 4 6 1 8 3 5 5 3 4 5 6 6 3 1 2 2 3 2 1 4 4 3 6 0 7 12 5 11
18 20 23 19 20 21 23 19 36 37 38 3 2 3 3 4 3 5 8 7 6 5 5 4 3 2 3 4 4 3 3 4 3 5 2 3 2 2 2 3 6 1 6 3 4 1 1
17 20 20 17 19 20 22 5 35 34 38 2 1 1 3 7 2 4 6 3 5 4 3 3 3 3 3 3 3 4 4 3 2 1 4 1 1 1 3 2 2 1 8 7 2 0 8
18 19 18 16 18 19 20 8 30 32 30 4 2 2 5 5 3 2 4 5 5 4 4 3 4 2 2 2 2 3 2 3 3 5 5 2 2 2 3 3 8 4 9 7 2 4 14
20 18 17 17 17 16 17 13 30 32 24 5 0 4 4 5 4 5 3 5 3 2 5 5 4 2 2 3 4 3 2 3 1 3 5 6 6 4 3 3 7 5 4 4 3 4 5
21 18 16 16 16 16 16 11 29 28 18 7 4 1 7 7 3 2 6 5 2 2 6 2 2 3 4 5 1 3 1 2 2 3 1 3 4 3 7 5 1 2 3 2 1 2 6
Wind_Direction
345 347 323 298 284 267 256 257 264 277 288 296 301 307 311 321 317 322 315 313 314 323 331 331 326 332 1 26 295 301 322 308 315 118 190 174 42 356 95 121 75 282 280 18 35 31 39
347 349 347 350 334 295 255 250 255 262 278 288 293 302 304 309 314 313 313 310 309 316 324 323 323 338 31 31 291 304 307 298 237 257 232 54 52 342 34 109 168 270 9 11 22 25 56
345 347 347 345 348 349 289 245 247 252 264 271 285 294 302 306 305 314 312 310 308 311 316 316 316 333 12 247 312 317 329 297 241 274 321 59 107 35 11 144 181 145 327 0 20 6 42
337 342 341 344 343 344 356 260 232 237 254 264 273 283 294 297 302 311 310 309 306 304 304 306 317 338 276 267 295 324 336 329 330 79 239 36 46 39 86 130 136 137 88 41 4 357 20
328 325 331 338 338 337 333 334 227 224 239 255 263 276 285 293 297 307 313 308 304 300 297 295 319 233 311 312 1 317 337 312 316 360 44 123 15 61 81 141 94 141 105 98 338 352 32
324 328 329 321 326 327 330 334 331 223 229 246 258 266 273 284 291 305 315 305 296 317 330 150 258 49 333 302 298 323 312 325 347 323 10 58 50 111 47 42 186 143 100 130 139 215 104
324 326 325 326 329 320 324 321 322 258 220 230 246 255 263 273 284 306 357 359 19 338 22 337 173 192 277 287 289 318 324 333 357 52 10 337 72 68 351 305 290 121 117 141 165 157 123
321 320 321 325 324 324 324 327 333 333 229 220 239 242 253 262 275 296 96 116 151 199 331 255 273 274 260 206 6 325 7 53 30 33 337 10 57 330 289 321 36 51 122 110 97 158 203
314 315 317 320 320 324 320 325 319 312 257 210 223 230 241 250 253 98 150 151 107 145 128 272 236 259 235 55 184 295 29 339 50 32 36 117 307 330 27 6 16 52 216 219 124 155 242
308 309 313 314 315 318 319 323 326 321 299 208 191 229 232 226 224 201 170 137 101 92 63 246 253 264 144 123 316 250 292 100 13 146 0 126 319 346 47 306 62 191 268 178 128 137 213
303 304 307 309 314 315 316 316 318 307 322 204 171 217 220 218 131 177 142 122 105 56 23 218 182 142 109 169 202 296 298 53 129 265 80 266 328 355 178 209 321 232 19 140 156 146 118
296 297 299 300 305 310 311 315 314 317 297 213 176 189 209 213 280 189 128 105 61 45 260 183 155 198 141 184 255 121 128 27 9 80 1 253 281 213 226 274 269 114 69 45 53 40 235
289 289 291 293 296 302 307 312 308 317 310 188 180 179 185 175 200 158 132 73 56 151 340 209 199 175 192 184 203 167 183 202 168 74 330 330 249 280 208 294 329 89 64 78 292 221 224
285 284 284 286 287 293 300 305 303 316 318 156 177 161 240 246 145 142 103 67 132 200 203 245 152 152 176 150 248 158 337 279 219 153 137 168 319 179 185 201 180 167 162 157 193 200 205
289 283 280 281 280 282 291 296 301 306 308 146 150 95 245 198 162 122 92 122 220 203 174 156 59 153 226 212 143 142 220 218 223 187 173 158 270 271 203 213 148 183 171 160 115 355 59
290 280 276 274 273 280 288 291 293 299 287 146 126 161 217 152 158 79 81 246 239 185 145 114 141 168 183 188 147 182 225 208 250 192 166 215 299 235 258 153 268 176 172 130 38 191 222
292 288 257 268 268 272 280 284 288 293 291 154 187 169 156 143 119 59 199 232 247 205 160 141 191 156 202 177 168 199 228 327 310 359 185 147 114 291 106 206 187 168 183 112 132 143 178
291 280 274 256 260 267 277 282 276 281 278 163 200 165 169 133 152 180 212 203 218 153 136 99 118 131 167 152 176 223 209 307 329 118 150 204 174 247 239 229 339 321 226 181 143 203 319
288 274 262 264 262 275 272 276 269 262 249 157 157 110 89 205 188 189 250 229 183 139 171 146 159 175 161 173 192 205 137 20 18 50 26 189 308 347 318 175 346 252 189 211 128 53 203
285 269 257 266 267 271 273 265 270 229 204 154 147 143 138 221 176 182 214 169 188 194 151 142 155 115 116 200 300 193 134 41 3 7 25 20 184 189 207 204 250 271 257 223 195 194 177
289 277 278 283 295 291 275 266 265 229 183 135 179 192 171 174 208 212 245 153 142 168 160 162 67 182 161 171 238 185 84 16 41 359 31 20 256 237 262 266 211 248 245 254 228 202 189
287 279 301 301 274 264 270 262 234 264 186 155 182 153 129 154 142 183 236 196 169 148 142 199 177 165 163 164 193 192 129 228 158 8 57 10 269 61 287 261 244 250 250 240 233 235 245
301 297 282 286 302 314 292 284 258 167 175 139 233 1 109 155 142 167 202 182 190 132 11 70 148 116 140 245 102 97 115 109 151 134 62 74 24 42 275 318 212 292 224 227 233 223 202
297 302 304 309 312 316 311 276 168 167 182 134 211 113 124 154 172 180 140 112 134 114 136 82 81 104 151 103 94 70 65 77 128 266 114 110 115 200 273 306 233 247 221 223 221 235 224
289 295 300 309 319 311 318 317 166 174 187 89 233 130 129 103 193 85 102 108 96 64 78 99 60 112 128 79 78 87 354 40 83 31 181 120 94 347 349 292 284 69 1 4 169 284 60
281 286 296 306 315 314 315 287 171 175 190 86 319 320 111 123 271 107 113 142 137 109 61 76 58 132 87 95 101 146 189 183 175 98 59 131 216 266 325 324 265 112 303 311 207 106 12
272 279 292 296 308 319 316 289 173 176 182 120 268 313 88 99 334 29 123 162 125 101 106 139 162 106 48 103 100 153 207 164 182 172 171 170 232 205 263 273 286 333 302 307 145 287 326
270 268 280 284 293 310 308 319 173 170 167 127 302 318 115 93 11 9 42 108 73 96 141 178 88 327 68 84 118 217 150 210 153 198 175 168 166 208 188 234 281 332 4 63 307 310 320
266 259 268 271 285 299 299 261 166 162 149 120 107 254 67 80 119 100 103 95 53 346 123 40 147 146 167 100 112 110 114 41 137 253 314 226 195 187 183 221 197 331 118 97 313 310 354